Miscellaneous Local Product
Issued by NWS Hastings, NE

Home | Current Version | Previous Version | Graphics & Text | Print | Product List | Glossary On
Versions: 1 2 3 4 5 6 7 8 9 10 11 12 13 14 15 16 17 18 19 20 21 22 23 24 25 26 27 28 29 30 31 32 33 34 35 36 37 38 39 40 41 42 43 44 45 46 47 48 49 50
161
AXUS43 KGID 050302
MISGRI

GID CWA HOURLY WEATHER ROUNDUP
NATIONAL WEATHER SERVICE HASTINGS NE
900 PM CST THU FEB 04 2016

NOTE: "FAIR" INDICATES FEW OR NO CLOUDS BELOW 12,000 FEET WITH NO
SIGNIFICANT WEATHER AND/OR OBSTRUCTIONS TO VISIBILITY.

...SOUTH CENTRAL NEBRASKA...

CITY           SKY/WX    TMP DP  RH WIND       PRES   REMARKS
GRAND ISLAND   CLOUDY    19  15  84 S7        30.29S WCI  10
HASTINGS       CLOUDY    15  11  83 SW5       30.28R WCI   8
ORD            CLOUDY    18  13  80 S5        30.25R WCI  11
YORK           CLOUDY    16  16 100 W3        30.30S
AURORA         CLOUDY    18  16  92 SW3       30.28F
LEXINGTON      CLOUDY    20  15  78 S7        30.25R WCI  11
HOLDREGE       CLOUDY    16  11  83 S3        30.25F
HEBRON         CLOUDY    15  13  90 CALM      30.33R

...NEBRASKA PANHANDLE...

CITY           SKY/WX    TMP DP  RH WIND       PRES   REMARKS
CHADRON        CLOUDY    30  22  72 SW8       30.13S WCI  22
ALLIANCE       CLOUDY    28  22  78 W16       30.13S WCI  16
SCOTTSBLUFF    LGT SNOW  29  25  85 NW14      30.16S FOG     WCI  18
SIDNEY         LGT SNOW  28  21  75 NW15      30.18R WCI  16

...WESTERN AND NORTH CENTRAL NEBRASKA...

CITY           SKY/WX    TMP DP  RH WIND       PRES   REMARKS
VALENTINE      CLOUDY    22  16  78 SW10      30.14F WCI  11
AINSWORTH      CLOUDY    22  18  81 S7        30.17S WCI  14
ONEILL         CLOUDY    18  12  77 S6        30.23S WCI  10
BROKEN BOW     CLOUDY    15  11  83 CALM      30.21S
IMPERIAL       CLOUDY    20  13  74 W7        30.21S WCI  11
NORTH PLATTE   CLOUDY    16  13  88 CALM      30.21S
MCCOOK         CLOUDY    21  13  71 W8        30.25R WCI  11

...EASTERN NEBRASKA...

CITY           SKY/WX    TMP DP  RH WIND       PRES   REMARKS
NORFOLK        CLOUDY    10   7  87 S9        30.27S WCI  -3
SO SIOUX CITY  CLOUDY    11   7  84 CALM      30.31R
TEKAMAH        CLOUDY    13   9  84 CALM      30.33R
COLUMBUS       CLOUDY    12   1  62 CALM      30.30S
ALBION         PTCLDY     9   6  88 CALM      30.27S
OMAHA EPPLEY   CLEAR     24  19  81 CALM      30.33R
OFFUTT AFB     CLEAR     17  15  90 NW6       30.32R WCI   9
MILLARD        CLEAR     24  20  83 CALM      30.33R
LINCOLN        PTCLDY    16  12  84 W3        30.34R
NEBRASKA CITY  CLEAR     22  16  80 W6        30.32S WCI  14
BEATRICE       CLEAR     19  15  85 CALM      30.32S
FALLS CITY     CLEAR     24  18  77 NW3       30.34S

...NORTHERN KANSAS...

CITY           SKY/WX    TMP DP  RH WIND       PRES   REMARKS
GOODLAND       CLOUDY    21  10  62 SW5       30.21F WCI  15
HILL CITY      CLOUDY    18  13  80 W3        30.29R
NORTON         CLEAR     16   9  73 SW5       30.26S WCI   9
PHILLIPSBURG   CLOUDY    19  14  79 CALM      30.30R
SMITH CENTER   CLEAR     18  12  79 CALM      30.31R
BELOIT         CLEAR     21  18  86 CALM      30.32S
HAYS           CLOUDY    18   7  62 W3        30.30S
RUSSELL        CLOUDY    20  17  88 W6        30.29R WCI  12
CONCORDIA      CLOUDY    21  15  78 W3        30.32R
SALINA         CLOUDY    28  19  69 NW3       30.34F
TOPEKA         CLEAR     30  18  60 N6        30.34R WCI  24



USA.gov is the U.S. government's official web portal to all federal, state and local government web resources and services.